Home > Time Zones > World Clock > Weather > Norway > Sola > Past weeks

Flag for Norway Weather past 2 weeks in Sola, Norway

Now
52 °F

Passing clouds.


Feels Like: 52 °F
Forecast: 54 / 62 °F
Wind: 1 mph from South

Location: Stavanger / Sola

Current Time: Sep 19, 2014 at 4:52:58 AM

Latest Report: Sep 19, 2014 at 4:00 AM


Visibility: 16 mi

Pressure: 30.07 "Hg

Humidity: 87%

Dew point: 48 °F

Location of SolaLocation

Historic Weather in Sola — Graph

°F

Sola temperature yesterday

Maximum temperature yesterday: 68 °F (at 4:00 PM)
Minimum temperature yesterday: 45 °F (at 6:00 AM)
Average temperature yesterday: 56 °F

Past Weeks' High & Low Weather Summary

 TemperatureHumidityPressure
High72 °F (Sep 16, 4:00 PM)99% (Sep 14, 8:00 AM)30.46 "Hg (Sep 14, 8:00 AM)
Low45 °F (Sep 18, 6:00 AM)31% (Sep 16, 5:00 PM)29.80 "Hg (Sep 7, 3:00 AM)
Average58 °F79%30.16 "Hg
* Reported Sep 4 3:00 AM — Sep 19 3:00 AM, Sola, Weather by CustomWeather, © 2014

Note: Actual official high and low records may vary slightly from our data, if they occured in-between our weather recording intervals... More about our weather records

Advertising

Sola weather history for previous 24 hours

 ConditionsComfort  
Time TempWeatherWind HumidityBarometerVisibility
3:00 AM
Sep 19
50 °FPassing clouds.1 mph87%30.08 "Hg17 mi
2:00 AM50 °FPassing clouds.1 mph88%30.09 "Hg16 mi
1:00 AM51 °FPassing clouds.No wind83%30.10 "Hg16 mi
12:00 AM52 °FClear.No wind87%30.10 "Hg17 mi
11:00 PM
Sep 18
52 °FClear.No wind87%30.10 "Hg11 mi
10:00 PM55 °FClear.3 mph81%30.10 "Hg14 mi
9:00 PM59 °FClear.2 mph72%30.10 "Hg19 mi
8:00 PM62 °FClear.2 mph63%30.09 "Hg25 mi
5:00 PM68 °FSunny.5 mph59%30.09 "Hg17 mi
4:00 PM68 °FPassing clouds.3 mph57%30.10 "Hg19 mi
3:00 PM68 °FScattered clouds.5 mph56%30.11 "Hg19 mi
2:00 PM66 °FSunny.3 mph60%30.12 "Hg17 mi
1:00 PM65 °FSunny.3 mph62%30.12 "Hg17 mi
12:00 PM66 °FSunny.2 mph60%30.13 "Hg16 mi
11:00 AM63 °FSunny.1 mph66%30.14 "Hg14 mi
10:00 AM58 °FSunny.No wind73%30.15 "Hg14 mi
9:00 AM50 °FSunny.1 mph87%30.15 "Hg15 mi
8:00 AM47 °FSunny.No wind92%30.14 "Hg14 mi
7:00 AM47 °FPassing clouds.1 mph89%30.15 "Hg18 mi
6:00 AM45 °FClear.1 mph93%30.15 "Hg16 mi
5:00 AM46 °FClear.No wind94%30.15 "Hg10 mi
4:00 AM47 °FClear.1 mph92%30.16 "Hg11 mi
Weather by CustomWeather, © 2014

See weather overviewHow to use our weather pages